Weather Roundup
Issued by NWS

Home | Current Version | Previous Version | Graphics & Text | Print | Product List | Glossary Off
Versions: 1 2 3 4 5 6 7 8 9 10 11 12 13 14 15 16 17 18 19 20 21 22 23 24 25 26 27 28 29 30 31 32 33 34 35 36 37 38 39 40 41 42 43 44 45 46 47 48 49 50

000
NZUS93 KARX 220910
HRRWXR

CURRENT HOURLY OBSERVATIONS ACROSS
MUCH OF THE UPPER MISSISSIPPI VALLEY
NATIONAL WEATHER SERVICE LA CROSSE WI
300 AM CST MON DEC 22 2014


...SOUTHEAST MINNESOTA...


CITY           SKY/WX    TMP DP  RH WIND       PRES   REMARKS
ROCHESTER      CLOUDY    35  34  96 S16       29.72F FOG     WCI  25
ROCHESTER/MAYO CLOUDY    36  35  96 SE12G21   29.73F WCI  27
WINONA         DRIZZLE   36  34  93 S7        29.78F WCI  30
AUSTIN         CLOUDY    36  36 100 S9        29.70F FOG     WCI  29
ALBERT LEA     FOG       37  37 100 S14G22    29.67F VSB 3/4 WCI  29
DODGE CENTER   LGT RAIN  36  36 100 S17G24    29.70F WCI  25
PRESTON        CLOUDY    34  33  96 S16       29.75F FOG     WCI  24
OWATONNA       CLOUDY    37  36  93 SE14G20   29.68F FOG     WCI  29
FARIBAULT      CLOUDY    37  37 100 SE16G22   29.68F WCI  28
$$

...ELSEWHERE IN MINNESOTA...


CITY           SKY/WX    TMP DP  RH WIND       PRES   REMARKS
MINNEAPOLIS    CLOUDY    38  36  92 SE15      29.69F WCI  29
INTNL FALLS    CLOUDY    33  31  92 SE7       29.65S FOG     WCI  27
DULUTH         LGT SNOW  33  32  96 SE7       29.69F VSB 1   WCI  27
RED WING       RAIN      37  36  93 S10G16    29.73F WCI  30
REDWOOD FALLS  CLOUDY    39  37  92 SE15      29.58F FOG     WCI  31
MANKATO        CLOUDY    39  34  81 SE18      29.65S WCI  30
WORTHINGTON    CLOUDY    39 -11  11 S15       29.56S WCI  31
FAIRMONT       CLOUDY    39  36  87 SE16      29.62F WCI  30
$$

...SOUTHWEST WISCONSIN...


CITY           SKY/WX    TMP DP  RH WIND       PRES   REMARKS
LA CROSSE      CLOUDY    38  33  82 S10       29.81F WCI  31
PRAIRIE DU CHI CLOUDY    36  31  83 SE10      29.83F WCI  28
BOSCOBEL       CLOUDY    37  31  78 VRB5      29.86F WCI  33
LONE ROCK      CLOUDY    38  30  73 SE7       29.88F WCI  33
PLATTEVILLE    CLOUDY    34  32  91 SE10      29.86F WCI  26
FORT MC COY    CLOUDY    35  32  88 S15       29.84F WCI  25
CAMP DOUGLAS   CLOUDY    34  34 100 SE6       29.85F WCI  29
VIROQUA        CLOUDY    33  33 100 SE8       29.81F WCI  26
WIS DELLS      CLOUDY    33  31  94 S8        29.88F FOG     WCI  25
$$

...ELSEWHERE IN WISCONSIN...


CITY           SKY/WX    TMP DP  RH WIND       PRES   REMARKS
MILWAUKEE      CLOUDY    34  28  79 S9        29.97F WCI  27
MADISON        CLOUDY    34  29  82 S15       29.90F WCI  24
GREEN BAY      CLOUDY    35  31  85 S8        29.94F WCI  29
EAU CLAIRE     CLOUDY    36  33  89 S9        29.77F FOG     WCI  29
BLACK RVR FLS  CLOUDY    36  33  88 SE6       29.82F FOG     WCI  31
MEDFORD        LGT SNOW  32  32  99 SE12      29.81F WCI  23
WAUSAU         CLOUDY    33  31  92 SE7       29.85S FOG     WCI  27
WIS RAPIDS     CLOUDY    34  29  82 S8        29.88S WCI  27
MARSHFIELD     CLOUDY    34  31  88 S12       29.83F FOG     WCI  25
RICE LAKE      DRIZZLE   34  33  96 SE9       29.76S WCI  26
$$

...NORTHEAST IOWA...


CITY           SKY/WX    TMP DP  RH WIND       PRES   REMARKS
DECORAH        CLOUDY    34  34 100 SE12G18   29.77F FOG     WCI  25
MASON CITY     LGT RAIN  37  36  96 SE16      29.70F FOG     WCI  28
CHARLES CITY   CLOUDY    36  36 100 SE15G21   29.74F FOG     WCI  26
OELWEIN        CLOUDY    36  34  93 SE14      29.79S FOG     WCI  27
$$

...ELSEWHERE IN IOWA...


CITY           SKY/WX    TMP DP  RH WIND       PRES   REMARKS
DES MOINES     CLOUDY    41  38  89 S14       29.70F
IOWA CITY      CLOUDY    36  33  89 SE8       29.83F WCI  30
FORT DODGE     CLOUDY    39  37  93 S12G20    29.66F WCI  32
$$

...NORTHERN ILLINOIS...


CITY           SKY/WX    TMP DP  RH WIND       PRES   REMARKS
CHICAGO-OHARE  MOCLDY    28  25  88 SE7       29.97F WCI  21
CHICAGO-MIDWAY MOCLDY    33  27  78 SE7       29.99F WCI  27
MOLINE         CLOUDY    36  31  82 S12       29.86F WCI  28
ROCKFORD       LGT RAIN  33  30  88 S12       29.95F FOG     WCI  24
PEORIA         LGT RAIN  38  30  73 SE8       29.92F WCI  32
$$

NOTE: "FAIR" INDICATES FEW OR NO CLOUDS BELOW 12,000 FEET WITH NO
SIGNIFICANT WEATHER AND/OR OBSTRUCTIONS TO VISIBILITY. WIND
SPEEDS ARE IN MILES-PER-HOUR.



USA.gov is the U.S. government's official web portal to all federal, state and local government web resources and services.